Theta_e
341 341 342 341 343 339 337 338 338 337 335 341 341 339 339 342 341 338 338 338 340 338 336 335 332 339 335 335 336 335 336 337 336 334 332 332 332 333 335 334 333 333 335 334 335 335 335 335 332 331 333 333 331 332 332 330 328 326 328 328 330 329 329 329 329 329 329 328 329 329 329 329 329 329 330 330 329 330 329 330 330 329 329 329 329
338 343 343 342 342 343 344 339 338 337 334 339 341 340 338 340 341 339 337 342 337 340 338 338 333 336 336 334 334 335 338 336 336 335 335 333 332 333 336 337 336 335 335 336 336 337 336 334 330 331 330 332 331 331 330 329 329 329 329 329 329 328 329 329 329 329 329 328 329 329 329 328 329 329 329 329 330 330 330 330 330 330 329 329 329
341 342 345 341 340 338 339 341 339 336 332 335 339 339 338 339 340 341 342 343 343 339 336 337 332 332 334 333 335 336 336 338 337 336 334 331 331 332 334 335 335 336 336 337 335 335 334 332 332 331 330 330 331 331 330 328 328 328 328 328 328 328 329 328 329 328 329 328 328 328 328 328 328 328 328 330 331 331 331 331 331 330 330 329 329
343 343 340 344 340 342 342 340 339 341 335 334 337 340 339 339 341 342 347 343 342 339 339 338 331 330 333 331 335 335 336 337 337 336 336 333 330 330 331 334 336 335 335 335 336 334 332 333 334 333 332 331 331 331 328 328 328 327 327 327 328 327 326 328 329 329 328 328 328 327 327 327 327 327 328 329 330 330 330 330 330 330 330 330 330
343 345 345 342 342 339 341 339 339 341 344 340 338 343 341 343 344 347 346 342 340 341 336 336 337 339 337 335 336 334 336 337 337 337 336 336 333 331 330 333 334 337 337 334 334 332 331 333 333 333 330 332 329 329 329 328 328 328 328 326 325 327 329 328 328 328 328 328 328 328 329 329 329 329 329 329 329 329 329 329 330 330 330 330 330
343 343 343 342 341 341 340 337 340 339 344 347 342 338 340 339 341 342 344 340 340 339 339 336 336 337 338 336 337 337 336 336 336 336 336 335 335 333 333 332 332 331 332 334 333 332 331 332 333 332 329 330 329 329 329 329 328 327 327 326 327 327 327 328 328 328 328 329 329 328 328 329 328 328 328 328 328 329 329 329 330 330 330 330 330
345 345 343 344 341 339 339 340 340 340 341 342 345 344 342 339 337 337 339 337 338 340 335 337 336 333 335 337 334 337 340 336 337 336 336 337 337 336 336 333 331 331 332 332 334 334 333 333 333 331 330 329 329 329 330 329 328 327 327 328 328 328 328 328 327 327 327 328 328 328 328 329 328 329 329 329 329 329 329 329 329 329 329 329 329
345 344 345 342 341 340 341 342 339 336 339 340 344 342 340 340 338 338 336 334 334 333 336 338 336 335 337 337 338 337 336 336 336 335 337 337 335 336 334 336 336 332 334 331 330 333 336 334 333 330 329 329 330 331 329 329 329 329 328 328 329 328 328 329 328 328 328 328 328 329 329 329 329 330 330 330 330 330 329 329 328 328 329 329 329
344 345 343 341 340 338 341 342 339 339 339 343 342 341 340 339 341 338 336 335 332 332 334 335 334 337 336 335 337 337 338 339 337 337 339 337 336 337 336 336 338 339 337 337 330 331 335 333 331 329 329 330 331 330 330 330 331 329 329 327 327 328 327 326 327 327 327 328 328 329 330 330 330 330 330 329 329 329 329 329 329 329 329 329 330
343 344 343 342 340 339 338 340 342 340 340 339 338 338 338 340 338 339 336 334 331 331 332 333 336 336 335 336 337 338 338 338 339 340 340 334 334 335 335 337 337 336 335 334 331 330 330 332 331 330 330 333 333 331 330 331 330 329 329 330 329 328 327 328 327 327 327 329 329 329 329 329 330 330 329 329 329 329 329 329 329 329 329 329 330
342 343 342 340 338 338 338 340 342 340 338 336 335 334 335 338 338 338 339 337 333 333 332 334 334 335 334 335 338 339 339 339 340 339 339 339 334 335 337 336 335 335 334 333 334 330 329 328 329 330 332 335 331 332 333 331 330 330 330 330 329 328 328 328 328 328 328 328 328 328 328 329 329 329 329 329 329 329 330 330 329 330 329 329 329
341 342 340 339 337 338 339 338 336 338 337 336 336 334 332 335 337 337 336 336 335 335 336 335 334 335 335 338 338 337 338 338 338 337 337 338 337 334 333 335 335 335 335 334 335 335 328 328 330 329 330 333 335 334 333 333 332 331 331 331 330 330 328 328 329 329 329 329 329 329 329 329 329 329 329 329 331 331 331 331 330 330 330 330 329
341 340 339 338 337 337 338 336 338 338 337 336 337 335 336 334 332 332 335 334 334 335 336 335 333 332 334 334 334 336 337 338 336 337 337 337 337 333 334 335 334 334 335 335 335 335 333 328 329 331 329 330 333 335 336 336 335 333 332 331 332 331 330 330 330 330 330 330 330 330 329 329 328 329 329 330 331 331 331 329 328 328 329 329 329
339 338 338 339 337 337 337 337 336 335 336 338 339 338 336 335 335 332 332 332 333 334 337 333 326 327 327 326 329 332 334 334 334 335 335 336 336 336 335 334 334 335 335 334 333 334 335 332 333 333 332 332 331 333 333 333 334 335 334 332 332 331 332 332 330 330 330 330 330 330 329 329 329 329 330 330 331 331 330 330 329 329 329 329 330
339 337 338 338 338 337 335 338 335 334 334 335 337 336 337 336 334 331 329 331 333 338 335 334 327 331 330 326 322 321 326 329 332 334 334 335 334 334 335 335 335 336 335 334 332 333 333 334 333 334 335 334 334 332 331 331 332 335 335 334 333 332 333 332 330 330 331 330 330 330 329 329 330 330 331 331 332 331 330 329 329 329 329 329 330
337 337 338 338 338 339 337 336 337 336 335 336 336 336 336 334 333 333 331 327 328 329 334 333 331 329 321 322 322 322 318 322 326 330 333 333 334 332 334 334 334 335 334 332 332 333 333 334 335 334 333 332 332 335 332 330 333 335 335 333 334 333 333 333 332 332 331 330 330 330 330 330 331 331 331 331 331 330 329 328 328 328 328 328 330
340 340 339 337 339 337 338 337 337 337 336 335 335 336 336 336 334 333 333 330 327 331 331 332 333 334 329 323 320 317 318 323 325 325 331 331 332 334 333 333 333 333 332 332 333 333 333 335 334 335 334 333 333 334 334 333 333 335 333 333 335 335 333 332 332 333 332 331 331 331 329 330 330 331 331 331 331 330 329 329 328 327 327 328 328
340 339 339 338 337 338 338 337 337 338 338 337 337 337 335 335 333 334 332 332 329 330 328 332 335 335 336 337 331 321 320 325 323 317 328 331 331 332 331 332 334 330 334 333 334 333 333 334 335 335 334 334 334 333 334 333 334 332 331 331 332 335 335 333 332 335 334 333 333 332 330 330 331 331 331 331 331 330 329 328 327 326 326 326 326
339 339 340 338 338 339 338 338 337 337 337 336 335 335 335 336 336 335 333 332 332 328 327 328 335 336 335 336 335 333 330 325 320 323 318 326 329 329 330 330 331 332 334 332 333 333 333 333 334 334 334 334 332 332 334 334 335 334 334 332 331 330 330 330 334 335 336 335 335 334 332 332 332 332 332 332 331 330 328 327 327 326 326 325 325
339 338 339 338 337 336 337 336 337 337 337 336 336 336 335 337 335 335 336 333 331 329 328 332 329 330 334 333 333 334 332 330 329 324 322 319 321 328 331 329 332 332 333 332 332 332 333 332 333 333 333 334 333 332 333 333 333 333 332 329 329 330 330 330 329 328 336 336 334 334 333 333 333 332 332 331 329 328 327 326 325 325 326 326 325
338 338 338 338 338 338 336 337 336 337 337 337 337 336 335 334 334 333 331 332 332 331 330 332 331 330 331 331 332 331 331 332 329 327 322 320 320 322 322 329 329 331 331 332 332 333 333 333 333 334 335 331 333 332 333 333 333 333 331 326 329 330 329 328 323 322 323 333 334 334 334 333 334 333 331 330 328 327 326 325 325 325 325 325 324
338 337 337 337 337 337 337 337 337 337 337 336 336 336 335 334 334 333 333 333 335 335 333 333 334 334 333 331 328 328 329 329 330 327 325 325 321 321 322 322 322 326 331 330 331 333 334 333 332 332 333 333 334 334 333 333 333 332 328 326 329 328 329 328 319 321 321 323 332 332 333 333 334 333 331 329 328 327 325 324 325 325 325 325 324
338 337 336 337 338 338 338 338 338 337 337 336 335 336 336 334 333 334 333 333 334 335 334 334 334 334 334 331 329 329 327 324 323 325 324 322 321 322 324 325 324 323 328 331 330 332 332 333 331 330 332 331 332 333 332 333 332 329 325 325 327 328 329 323 317 317 318 327 330 333 334 333 333 333 330 329 328 326 324 324 324 324 324 324 323
338 337 336 337 337 337 338 337 337 335 335 336 336 337 336 336 334 333 332 333 335 334 334 332 333 332 332 332 332 331 330 330 330 328 325 323 323 322 322 325 324 326 328 330 331 330 331 331 332 330 331 331 332 332 332 331 328 325 325 324 325 327 327 324 319 318 315 323 327 330 333 333 333 331 329 328 327 326 325 324 324 324 323 322 323
336 335 336 336 335 336 336 336 336 336 336 336 337 337 337 336 335 334 333 333 333 332 333 333 333 331 330 331 332 331 330 333 327 326 327 326 325 321 323 326 320 322 326 328 326 329 329 331 330 330 330 329 331 331 330 328 326 325 325 323 324 324 326 328 325 320 318 319 323 329 332 333 332 329 329 328 326 325 325 325 322 320 321 321 323
333 335 337 336 336 336 337 337 337 336 336 336 336 336 336 336 334 332 332 333 333 332 332 333 334 334 333 330 330 331 331 331 330 328 325 325 324 322 322 323 325 321 324 325 327 325 326 331 330 330 330 330 330 331 329 328 327 324 324 324 321 321 322 325 327 324 320 319 318 324 327 329 329 329 328 326 325 325 321 315 316 316 313 314 318
333 334 336 337 337 337 337 336 337 337 337 335 336 337 337 335 334 334 334 335 332 331 330 332 332 333 334 332 331 331 331 332 331 328 327 327 329 328 323 319 319 321 321 325 324 324 323 326 328 328 329 328 330 330 329 328 326 324 324 325 323 319 320 323 326 326 321 317 316 317 318 321 322 322 322 321 318 314 316 319 317 314 315 316 319
333 333 333 334 335 336 336 336 336 337 335 336 335 334 334 334 333 333 333 335 333 333 331 332 332 334 334 334 332 330 332 333 330 329 329 332 331 330 329 322 319 316 319 318 320 321 326 323 326 329 328 329 329 329 328 327 326 322 325 326 323 320 317 319 323 324 321 319 317 315 315 316 315 315 315 316 317 318 319 320 317 316 314 318 322
334 334 333 333 333 334 334 336 336 335 333 334 335 334 333 332 332 332 332 333 333 333 334 334 333 334 332 333 332 332 332 331 330 330 333 334 332 331 330 326 323 319 315 315 317 318 322 325 322 325 328 329 328 327 327 327 325 324 326 326 324 322 317 318 319 319 319 318 318 317 315 316 316 317 319 319 320 321 319 316 317 316 316 321 321
333 335 334 332 333 334 334 334 334 331 333 335 334 332 332 331 332 333 333 333 332 332 333 334 332 332 331 331 331 331 331 331 331 333 333 334 331 331 329 327 327 320 319 316 316 321 321 324 325 324 326 327 328 325 325 325 324 325 326 326 325 323 315 317 315 314 314 316 314 312 312 314 317 319 320 318 320 320 316 315 315 315 317 321 320
333 333 334 334 332 332 332 333 332 331 332 332 332 332 332 332 332 332 334 333 332 331 332 331 331 330 329 329 330 330 329 330 329 333 334 334 333 331 329 330 328 327 323 321 316 322 324 321 324 326 326 327 328 325 324 323 324 325 326 324 325 319 316 316 314 314 314 314 311 313 315 315 315 317 318 320 321 320 318 318 317 317 320 320 318
333 332 331 332 332 331 334 332 332 332 331 331 331 331 332 331 332 332 334 333 331 330 331 331 332 330 329 328 329 329 329 329 328 331 333 334 334 330 329 329 330 328 328 323 319 319 325 324 324 325 327 326 327 325 321 320 324 321 326 324 323 318 319 317 313 314 314 313 312 317 322 318 315 318 320 320 320 320 320 319 319 319 319 316 314
332 333 331 330 330 331 330 330 331 331 330 328 328 330 331 331 333 332 333 333 332 331 331 330 332 331 328 328 328 330 331 328 328 330 332 332 332 333 332 330 328 329 326 324 321 320 323 328 325 324 327 327 325 325 319 317 318 321 321 323 321 320 321 319 317 311 312 312 311 313 314 311 312 320 320 319 319 319 316 314 315 315 314 312 311
331 330 331 331 332 332 329 332 332 331 331 330 330 331 330 330 331 331 331 330 328 329 330 328 328 329 328 327 328 329 330 329 330 330 332 331 331 331 330 329 327 327 329 325 322 319 319 324 324 325 327 327 324 326 317 315 315 316 320 321 320 320 320 320 318 315 310 311 310 311 312 311 310 314 313 311 312 312 312 310 309 309 312 309 306
330 332 331 330 330 331 329 329 328 328 330 331 332 331 330 329 330 331 329 328 329 329 329 328 328 328 327 327 327 328 329 327 327 329 330 330 330 329 328 328 326 326 328 330 324 321 321 322 324 322 323 325 324 323 320 316 314 317 319 317 315 315 317 318 319 319 308 309 309 310 310 309 309 311 310 310 309 309 309 309 308 307 307 307 304
326 329 331 330 330 329 328 329 330 329 329 330 332 332 332 331 330 328 328 328 329 330 330 330 330 330 328 328 328 328 328 326 327 331 331 330 329 327 328 328 327 327 328 326 327 323 323 321 322 321 323 323 323 324 321 318 314 315 318 317 316 313 313 315 316 318 312 309 309 309 310 310 308 308 308 308 308 308 307 307 307 306 305 306 305
322 324 328 331 331 330 326 327 329 328 329 331 331 330 331 332 330 328 328 328 330 330 331 331 331 329 328 327 328 328 328 328 326 330 331 330 330 329 328 328 327 328 326 326 324 325 324 321 320 322 323 323 324 325 321 316 313 312 314 316 314 310 309 314 313 315 313 308 309 309 308 308 307 307 306 306 307 306 306 306 306 306 306 305 304
319 320 322 324 328 329 330 328 327 328 330 328 328 328 329 329 330 331 330 329 330 329 330 331 329 330 329 328 329 329 328 326 326 328 330 329 330 327 328 326 325 325 324 326 324 324 324 322 320 319 321 321 321 320 322 315 310 308 308 313 311 308 309 311 311 312 314 313 312 311 309 307 307 306 306 306 305 305 304 305 305 306 305 304 304
315 316 318 320 322 324 327 330 328 328 329 330 329 329 329 329 329 329 329 329 329 331 330 331 330 330 329 329 329 330 328 327 327 327 326 324 323 325 325 326 326 326 324 326 325 322 322 320 320 319 319 320 319 318 321 317 311 310 308 309 309 309 309 308 307 308 309 311 309 307 308 308 309 308 306 305 305 306 305 304 304 305 304 303 302
313 313 313 314 317 320 320 324 328 328 328 328 327 328 328 329 329 329 329 328 330 331 331 331 330 330 329 328 328 329 329 329 327 327 326 324 325 324 326 325 324 324 324 322 322 321 320 319 317 316 317 314 314 317 320 316 312 311 311 310 307 306 307 309 307 305 304 306 306 306 306 305 305 306 304 304 305 304 304 303 304 304 304 302 300
311 311 311 310 312 313 316 319 322 326 327 321 311 311 320 328 330 328 328 330 331 330 329 330 330 330 329 329 329 329 328 329 322 322 323 324 326 325 325 326 324 323 324 322 321 321 319 317 314 315 313 310 311 312 310 310 310 309 310 311 309 309 308 309 308 307 306 305 305 304 304 305 303 304 303 302 303 303 303 303 304 304 303 300 299
309 309 308 308 308 308 310 312 316 320 314 304 303 299 298 305 321 327 328 329 329 329 329 329 330 330 328 326 328 328 323 321 318 315 314 316 320 326 326 326 325 323 324 324 322 321 318 313 313 314 310 309 310 311 312 311 313 311 310 309 307 308 308 308 310 309 308 307 306 304 304 306 305 305 305 304 307 304 302 302 308 304 301 300 301
307 307 306 305 305 305 306 307 309 314 309 301 296 294 294 296 306 321 325 326 328 328 329 329 329 329 329 328 329 327 320 320 318 307 309 308 310 313 315 318 323 326 324 324 323 322 321 317 314 315 312 312 313 313 314 312 315 311 310 309 309 309 308 306 305 310 313 312 312 313 309 307 307 313 315 313 310 309 307 304 301 301 301 300 300
306 306 305 304 304 303 304 304 305 308 308 299 293 293 293 293 296 306 320 325 324 327 328 329 329 328 325 326 328 326 325 325 324 316 310 305 305 306 307 308 306 306 311 325 325 321 320 319 320 319 317 315 315 314 314 314 313 314 314 311 310 308 308 307 307 310 317 323 319 317 317 319 320 316 311 310 307 306 303 300 300 300 300 300 299
305 304 304 303 303 303 302 301 302 303 306 297 293 293 292 292 293 297 312 322 327 327 328 329 329 328 325 323 324 327 327 324 325 326 321 315 306 302 301 300 302 303 300 299 300 324 324 323 322 319 320 320 319 318 316 318 318 314 316 311 311 312 313 312 315 314 318 322 319 317 316 317 315 311 307 306 302 301 301 300 300 300 299 299 299
304 303 303 302 302 302 301 301 300 301 303 297 293 292 292 291 292 293 308 316 323 326 327 328 329 329 327 325 323 324 326 327 325 324 325 320 317 314 318 321 318 309 303 301 302 307 318 324 322 318 320 322 320 320 319 318 319 317 315 312 313 311 317 316 318 319 319 324 318 316 314 314 315 310 306 306 308 305 303 300 299 299 299 299 299
303 302 302 301 301 301 301 300 300 299 300 295 293 292 291 291 291 294 309 317 321 324 326 327 328 328 327 327 326 324 324 325 326 324 325 323 321 321 322 324 319 310 307 307 313 320 323 321 318 324 324 324 323 323 321 321 321 321 320 317 318 319 319 320 319 319 318 320 320 316 311 315 316 313 309 307 306 304 302 298 299 299 299 299 299
303 303 302 302 300 300 300 300 299 298 298 294 293 292 292 291 292 303 313 317 321 325 326 324 322 321 322 326 325 323 323 324 318 306 311 323 324 321 316 313 308 305 301 298 294 298 309 316 318 314 308 306 306 308 308 318 325 326 323 321 321 319 316 314 313 313 312 313 313 314 311 313 317 314 310 307 304 301 301 300 298 300 299 299 298
302 302 302 301 301 300 299 299 299 298 298 296 293 292 292 291 294 303 312 317 321 323 322 319 314 310 308 311 322 324 323 323 312 302 306 312 321 318 314 311 308 306 303 302 296 295 296 296 295 295 295 296 297 297 298 298 305 319 323 320 317 317 314 311 312 312 309 308 309 311 308 307 309 312 308 305 303 301 301 300 300 299 299 299 299
302 302 302 301 301 300 299 299 299 298 298 297 294 293 292 292 294 301 309 317 321 321 320 316 313 309 305 302 315 324 323 316 298 300 303 314 322 317 312 310 308 306 305 307 307 303 296 295 295 296 297 297 298 298 298 300 302 308 319 315 315 314 313 313 311 310 308 306 305 310 308 304 308 310 307 305 303 303 302 302 301 299 298 297 298
302 302 302 301 301 301 300 299 300 298 298 297 295 293 293 292 294 300 311 316 314 312 310 308 307 306 306 302 299 299 306 300 294 299 306 316 321 317 313 310 308 306 307 308 309 309 310 309 309 308 305 305 308 308 305 300 302 306 311 312 314 314 311 311 311 307 304 303 304 308 305 308 307 306 306 303 301 304 304 302 301 299 299 298 297
Wind_Speed
4 7 7 6 3 5 6 6 6 6 6 5 5 4 5 4 4 6 5 4 2 3 3 3 4 2 3 3 2 4 4 4 6 10 8 7 6 7 8 5 5 6 9 8 8 8 9 9 8 7 8 8 8 9 10 9 8 7 9 10 11 11 12 12 12 12 13 12 13 13 13 13 13 14 14 14 14 15 15 15 16 16 16 17 17
4 8 4 5 4 4 3 5 5 5 6 5 6 4 4 3 4 5 5 3 3 2 2 1 3 3 3 3 4 3 3 4 4 6 8 8 7 6 9 6 6 5 6 8 9 9 9 8 7 8 7 9 9 9 9 9 10 10 9 10 11 11 11 12 12 12 13 13 13 13 13 13 13 14 13 13 15 15 15 16 15 16 16 17 17
6 7 5 3 5 7 8 5 4 5 7 5 6 5 5 4 4 4 2 1 1 3 3 2 4 4 3 3 4 4 4 3 4 5 9 7 7 6 6 8 6 5 6 6 8 9 9 8 8 8 7 9 9 9 9 8 9 10 9 9 10 11 12 11 12 13 12 12 14 12 12 12 12 12 13 14 15 15 15 15 15 15 16 16 17
5 5 5 2 3 2 4 8 7 3 7 7 6 5 5 6 4 4 3 3 1 3 3 2 4 3 4 3 5 4 3 4 4 4 4 8 7 6 5 5 6 7 6 6 7 7 7 9 10 9 8 9 9 9 8 8 9 9 10 10 10 9 10 12 12 12 12 13 13 13 14 13 14 13 12 13 14 14 14 14 15 15 15 16 16
4 3 3 2 3 3 1 5 9 8 3 4 4 3 3 3 3 1 2 2 5 3 4 4 2 1 2 5 4 3 5 3 3 3 3 5 8 7 6 5 5 5 6 5 6 8 6 9 9 9 8 10 8 8 9 10 9 9 10 9 7 11 12 12 12 12 12 12 12 13 13 14 13 13 13 13 13 13 13 13 14 14 14 15 14
3 3 2 3 2 2 3 6 8 10 4 3 3 4 3 3 3 3 2 4 3 3 2 3 2 1 2 5 3 5 4 3 4 4 4 4 7 7 7 6 6 4 4 7 6 7 5 7 9 8 7 7 8 8 9 10 9 9 10 10 10 10 11 12 12 13 13 13 13 13 13 12 12 12 12 12 12 12 12 13 13 14 13 13 13
4 4 3 2 2 4 5 4 7 9 4 5 2 1 2 3 4 4 3 5 2 1 3 3 3 3 3 4 3 4 2 3 5 4 3 5 5 5 5 6 6 5 4 4 6 7 7 7 9 9 9 9 10 9 9 9 9 8 10 11 11 11 11 11 12 12 13 13 13 13 12 12 12 12 12 11 11 12 12 12 12 12 12 12 12
4 3 2 2 2 3 3 2 1 7 7 6 2 2 3 3 3 4 4 4 3 3 3 2 3 3 3 4 3 4 3 4 3 4 3 5 6 4 5 4 5 5 5 5 4 4 6 8 8 8 8 10 10 10 8 9 10 10 9 10 12 11 11 12 12 12 12 13 13 12 12 12 11 12 11 11 11 11 11 11 11 11 11 11 11
2 1 2 2 1 2 2 3 4 5 7 4 2 3 3 3 2 3 4 4 5 6 3 3 3 2 3 3 4 3 2 3 3 3 4 4 6 4 4 5 5 6 4 4 5 4 5 10 8 8 7 8 10 10 10 10 10 10 11 10 10 11 10 11 12 12 13 13 12 13 12 12 12 11 10 10 10 10 11 11 10 11 11 11 12
2 2 2 1 1 2 2 2 3 3 5 4 5 5 3 4 3 3 4 5 5 3 4 3 3 3 3 3 3 3 4 2 2 3 2 4 3 1 5 5 4 4 4 2 4 5 4 7 10 9 9 6 8 11 11 10 10 10 11 12 11 10 11 12 12 12 12 12 12 12 11 11 11 10 10 10 10 9 9 10 10 9 10 11 12
4 4 4 3 3 2 2 2 0 1 1 1 1 5 8 4 5 4 4 3 5 5 6 5 4 3 3 3 5 4 2 1 2 3 1 3 8 5 6 5 4 4 4 3 3 6 5 4 4 3 4 8 10 11 11 11 10 10 11 11 11 11 10 11 12 12 12 12 12 11 10 10 10 10 9 9 9 8 8 8 9 8 8 9 11
5 5 4 4 4 4 3 3 2 2 2 3 3 4 6 9 7 6 5 4 4 3 4 3 3 3 3 6 4 3 2 1 1 3 2 1 4 5 6 5 4 5 5 5 3 4 6 5 4 5 4 5 8 10 12 12 11 11 11 11 12 12 12 11 12 12 12 12 11 10 9 9 9 8 8 8 8 7 8 9 9 9 9 8 9
4 4 4 5 6 5 4 4 4 5 4 4 3 4 4 3 5 9 7 6 4 3 4 3 4 3 4 3 3 1 2 1 0 1 2 2 2 4 6 6 5 6 5 5 4 4 6 6 5 5 6 4 4 8 8 7 10 13 12 12 12 13 13 13 13 13 13 12 11 11 10 9 8 7 7 8 8 10 11 10 9 8 9 9 9
5 4 4 4 4 5 6 5 5 5 3 3 2 2 3 1 2 3 7 10 4 4 3 5 1 4 4 1 1 0 1 0 0 1 1 1 2 1 6 5 5 5 5 5 5 4 4 5 4 4 6 6 5 5 5 5 5 11 14 12 13 13 13 13 13 14 12 12 12 11 9 8 8 7 8 8 9 9 10 9 9 9 10 10 10
4 3 5 6 5 4 4 4 5 5 5 5 4 4 3 3 4 5 3 10 6 1 5 3 5 4 3 4 2 2 0 1 2 1 2 1 2 2 6 5 6 5 5 5 5 5 4 3 3 4 4 5 5 5 5 5 6 8 11 13 13 13 13 14 13 13 14 12 12 10 9 8 8 8 8 8 10 10 9 9 10 10 10 10 9
4 5 5 4 6 5 4 4 4 6 6 5 5 4 5 5 4 5 6 5 8 2 3 10 4 5 6 3 3 3 2 5 4 3 3 3 2 6 6 5 5 5 5 5 6 6 5 5 5 6 6 5 4 4 6 5 10 11 10 7 9 13 14 15 15 13 13 13 12 10 7 8 9 9 8 8 10 10 9 9 9 10 10 9 11
5 6 5 5 5 5 6 5 5 4 5 4 5 5 5 5 4 3 5 4 5 4 4 7 8 6 3 4 2 0 2 2 5 2 4 3 4 4 4 7 5 5 5 5 5 6 5 6 6 4 5 6 5 4 5 5 7 7 9 10 10 10 13 15 15 15 14 12 13 12 9 8 8 10 8 8 10 11 9 9 9 10 11 11 12
6 7 8 6 5 6 5 5 6 4 4 5 5 4 5 5 5 4 2 3 4 4 6 7 8 7 3 1 1 2 4 2 6 3 2 3 3 2 0 4 5 3 4 3 5 6 6 6 6 5 4 4 4 3 3 4 5 5 6 8 11 11 11 14 15 15 16 15 14 13 11 9 9 9 8 8 10 11 9 9 9 10 10 10 10
5 5 5 4 6 5 5 6 5 5 5 5 5 6 5 5 5 5 5 5 4 6 8 8 4 3 4 1 0 1 5 4 4 4 3 3 1 2 4 3 4 5 4 3 4 5 5 6 5 6 5 4 3 4 4 4 7 7 10 11 12 11 10 10 13 14 15 16 15 14 13 11 9 8 8 9 11 11 9 9 9 10 10 10 10
5 6 6 6 4 4 7 6 6 7 6 7 7 6 5 4 4 5 4 5 5 6 8 6 7 5 4 4 2 1 3 4 3 1 2 5 4 3 2 8 4 4 5 5 5 5 5 7 7 6 5 6 5 4 5 4 4 6 7 13 13 11 10 9 8 10 12 15 14 14 14 13 10 9 10 11 12 10 9 9 9 10 11 11 11
5 6 7 7 5 7 7 6 6 7 7 6 6 6 7 6 6 5 6 6 8 8 9 7 6 5 5 4 3 3 3 4 5 6 3 4 6 6 5 4 4 3 5 4 3 4 5 6 5 5 5 6 6 6 5 4 5 5 6 13 13 11 11 9 7 9 4 8 14 14 13 12 13 13 13 12 11 10 10 10 10 10 11 11 11
4 5 5 6 6 6 7 7 8 7 7 8 8 7 7 7 6 6 7 8 7 8 7 5 4 4 5 5 6 4 3 2 2 3 6 6 4 8 7 8 8 5 5 5 4 4 4 5 5 6 6 5 6 7 6 5 4 5 7 13 12 11 11 10 10 9 7 4 8 12 13 13 14 16 14 12 11 11 11 11 11 11 11 11 11
2 3 4 5 5 6 6 7 7 7 7 8 8 8 8 8 7 7 7 8 5 5 5 4 4 5 4 5 6 6 6 5 5 5 4 4 5 6 7 8 8 7 7 6 6 6 6 4 5 6 6 5 5 5 6 6 6 7 13 12 12 11 12 13 12 12 9 8 9 11 13 14 16 15 14 12 12 12 12 12 12 12 11 11 12
3 3 4 5 6 6 6 7 7 6 7 6 6 7 7 7 7 7 7 8 6 5 6 6 7 6 6 5 5 4 3 2 2 1 2 7 6 6 7 7 6 6 6 6 7 7 7 7 6 5 7 8 6 6 5 5 7 14 10 11 12 12 12 12 13 11 11 10 10 10 13 16 16 14 13 12 12 13 13 13 13 12 12 12 12
2 3 3 4 4 6 6 6 6 5 5 5 5 5 5 6 7 9 7 8 7 6 7 7 7 7 7 6 5 5 5 2 5 6 4 7 7 6 6 6 6 6 7 7 5 6 7 8 7 6 7 6 7 6 5 6 7 10 10 9 12 11 12 12 12 12 11 12 11 11 13 16 14 13 13 13 13 13 13 11 10 9 9 10 11
5 4 3 5 5 5 5 5 6 5 4 6 6 7 7 7 7 7 8 8 7 9 9 7 6 7 6 6 6 6 4 3 3 1 8 12 5 5 6 6 1 4 6 6 7 7 3 4 5 4 6 6 8 7 7 7 7 10 11 8 9 12 12 12 12 11 12 12 11 9 13 12 12 13 13 13 13 11 11 11 10 8 8 6 8
5 5 5 4 5 4 5 6 6 6 6 6 5 6 4 5 6 8 8 7 8 9 8 7 7 8 8 6 5 4 5 4 4 7 12 9 3 3 5 8 7 6 6 6 6 7 6 9 9 7 7 6 9 9 8 7 9 12 11 7 6 12 12 13 13 12 11 10 11 12 12 12 11 11 11 10 11 12 11 10 10 9 8 7 6
4 5 5 6 6 5 6 6 6 5 7 6 6 5 5 5 4 6 8 7 8 9 8 9 9 8 8 5 5 6 4 5 6 10 11 2 3 4 3 5 8 6 4 4 5 6 9 7 6 6 7 7 10 8 11 11 9 12 10 6 6 7 12 13 13 13 12 11 12 12 13 11 10 10 11 12 12 12 11 10 10 9 8 8 7
4 3 4 4 6 6 6 6 4 4 7 9 7 5 5 6 5 6 7 8 8 8 7 7 8 7 5 4 5 4 4 3 6 10 5 4 4 3 4 4 7 7 7 7 7 6 8 6 7 7 8 8 7 9 11 9 11 12 7 7 7 6 10 13 13 13 12 13 12 12 12 12 12 12 12 12 12 11 11 11 10 10 9 8 8
5 3 3 5 4 6 5 5 2 4 8 5 6 7 8 8 7 6 6 6 7 6 7 8 7 5 6 4 3 3 2 4 5 9 4 3 4 3 4 4 5 6 6 7 5 5 6 5 5 5 7 8 9 9 9 9 15 14 9 9 8 7 12 13 13 13 13 13 13 12 13 13 13 12 12 12 12 12 11 11 11 10 9 10 11
5 5 4 3 3 3 4 4 3 6 7 7 8 7 8 6 6 5 5 7 7 8 7 6 6 6 5 5 3 1 4 3 6 8 4 3 4 3 4 3 3 3 7 5 4 3 6 7 8 8 9 9 10 10 9 10 14 14 9 9 9 13 14 11 13 13 13 13 13 12 12 13 13 13 13 12 11 11 10 9 10 10 10 12 10
5 6 6 5 4 4 3 4 6 4 4 6 6 7 6 6 7 6 6 7 6 6 5 6 6 6 6 6 5 7 6 3 7 9 5 4 3 4 4 5 3 4 4 5 5 6 4 7 5 8 10 9 10 10 9 9 13 17 9 10 12 15 9 7 11 13 13 13 13 12 13 13 13 13 12 12 12 10 9 11 10 10 11 10 9
7 6 6 6 6 5 4 6 6 6 6 6 8 7 6 7 6 7 7 7 6 5 6 6 4 4 5 6 6 7 5 7 10 9 6 6 6 4 3 3 3 4 6 5 5 4 2 1 5 6 9 9 8 9 11 10 10 9 3 10 12 10 8 7 7 11 13 13 13 13 13 13 13 12 12 13 13 12 12 11 12 11 10 9 8
6 8 7 7 6 6 5 3 5 7 6 6 6 5 6 7 7 7 7 5 8 8 5 6 5 5 4 6 7 6 5 7 10 10 8 7 7 7 5 5 4 5 6 5 5 7 6 3 4 6 6 9 7 7 10 10 10 6 9 8 8 9 8 7 6 7 12 13 13 13 13 13 13 13 14 13 13 12 12 11 11 11 10 9 9
9 5 5 6 7 6 6 3 7 6 5 7 7 6 7 8 9 6 4 8 8 8 8 9 10 9 8 9 9 7 6 8 12 11 6 8 8 8 8 6 6 5 5 1 5 6 8 6 6 8 8 7 7 10 9 9 10 8 11 9 9 8 8 9 8 7 12 13 15 14 14 14 13 13 13 12 12 12 11 11 10 10 10 9 9
11 10 7 6 6 5 6 6 4 6 7 6 6 6 7 7 7 4 7 6 7 7 7 7 7 8 9 9 10 8 8 9 11 8 6 6 7 7 7 5 5 5 8 7 5 4 7 8 7 7 9 9 6 7 9 8 9 8 9 9 8 8 9 10 10 8 11 16 15 15 14 14 13 13 13 13 12 11 10 10 10 10 10 9 8
13 14 12 7 5 1 4 7 7 6 9 7 5 6 6 6 4 7 8 7 7 6 5 4 5 7 8 9 7 8 7 4 7 9 7 7 6 6 6 2 2 6 5 3 2 2 6 8 7 5 7 7 8 4 8 10 9 8 8 10 9 9 9 11 9 10 16 19 17 15 14 14 14 13 13 12 12 12 12 11 11 10 9 8 5
12 11 12 13 12 9 3 5 6 8 6 2 5 7 7 5 6 3 3 4 5 5 5 5 6 6 7 9 8 7 7 8 10 9 7 3 3 5 3 7 5 6 6 5 4 9 3 5 7 3 7 8 8 9 10 11 10 9 8 9 9 10 7 11 8 6 5 6 5 7 9 10 12 13 13 13 13 13 13 12 11 9 6 3 3
12 12 13 13 13 14 12 5 6 6 7 3 6 8 6 7 8 7 6 6 8 7 7 7 7 7 7 7 7 7 8 7 6 7 3 6 7 8 5 5 6 5 6 4 4 7 5 5 5 7 7 6 8 10 11 12 11 10 9 6 8 8 6 7 7 6 7 8 10 13 12 12 12 11 13 14 14 13 12 10 7 5 5 6 6
12 14 13 14 12 12 12 13 10 6 8 7 7 6 7 5 6 6 7 7 7 6 7 7 7 7 8 8 8 7 6 6 6 3 6 7 5 6 6 8 7 8 8 7 7 8 6 7 7 8 8 7 7 6 10 11 11 8 9 6 8 6 7 6 8 9 7 8 7 6 7 9 10 13 13 13 13 13 9 6 7 7 8 7 5
11 13 13 13 14 14 14 13 13 12 8 12 12 12 10 7 4 5 6 6 5 5 5 6 6 7 7 7 7 8 8 9 12 11 12 9 8 7 6 7 7 8 8 9 8 8 8 8 8 6 8 7 7 6 7 8 9 9 7 6 6 6 8 7 7 8 10 9 8 8 9 10 9 8 7 6 6 5 6 7 6 9 8 6 5
13 13 14 14 13 14 14 14 13 11 12 9 17 24 17 10 9 6 6 5 4 5 6 6 6 6 6 4 6 12 11 14 17 18 15 13 11 8 9 7 8 8 8 8 8 8 7 8 8 7 8 8 6 7 4 5 7 7 6 7 7 6 8 7 7 7 9 10 9 9 8 7 7 5 5 5 5 9 6 5 3 6 8 8 6
14 14 13 15 15 14 14 14 13 11 9 14 24 20 22 20 10 7 7 6 4 6 7 7 6 7 3 3 3 6 9 11 12 15 14 13 13 11 12 12 11 11 9 8 8 9 5 6 8 6 7 7 7 7 4 7 6 8 8 8 7 6 7 8 6 4 4 9 5 5 4 7 6 5 5 6 6 6 6 6 13 14 12 10 9
13 13 15 14 13 13 12 13 12 12 7 20 22 22 20 20 15 9 8 7 6 6 5 6 5 4 5 5 4 4 5 6 5 6 8 11 12 11 11 10 7 4 4 5 6 6 5 4 5 3 6 6 7 8 5 5 6 5 7 8 8 9 7 8 6 6 1 3 8 7 6 4 7 8 7 5 7 6 7 11 15 15 13 12 11
12 13 14 14 13 13 13 14 13 13 9 18 22 23 21 19 19 13 7 10 7 5 4 5 4 4 8 9 6 6 8 12 5 4 4 5 5 7 10 8 7 7 8 9 7 3 4 4 5 3 3 1 4 3 3 1 2 5 4 8 7 5 6 6 5 3 0 2 7 5 7 6 7 8 8 5 7 8 9 12 15 14 14 13 12
12 12 13 14 13 13 13 13 12 12 10 18 22 23 21 20 19 14 6 7 7 8 6 3 4 4 7 8 7 6 5 6 7 7 6 7 7 7 6 4 4 6 8 8 8 6 6 6 4 4 3 1 2 1 0 2 2 2 6 6 6 4 7 6 5 6 2 2 5 3 5 4 6 10 8 6 6 7 7 11 15 15 14 13 13
12 12 12 13 12 13 13 13 13 12 9 21 23 23 21 20 21 14 7 6 5 6 5 5 2 3 5 6 5 7 6 4 2 4 2 5 6 7 6 4 6 6 6 5 4 1 1 6 4 1 4 3 3 2 2 2 3 2 4 4 5 8 8 6 6 4 5 4 3 3 3 6 5 8 7 7 6 6 5 9 13 14 14 13 13
9 9 9 10 12 13 14 15 15 14 12 21 25 25 24 21 21 9 6 6 5 3 2 5 5 6 4 1 6 7 5 4 6 9 10 5 3 7 8 6 7 6 5 4 4 3 5 4 4 6 5 7 6 7 4 3 3 2 2 9 9 9 9 7 6 2 5 4 6 3 2 4 7 8 7 5 6 6 5 4 7 12 13 13 13
10 11 10 10 10 12 15 15 15 12 12 19 25 25 25 25 17 8 7 6 4 0 4 6 8 8 7 7 2 4 5 3 5 15 14 5 6 8 7 7 6 7 5 5 8 14 16 17 17 15 16 17 16 15 15 12 5 1 6 8 6 7 9 8 5 6 3 3 5 5 2 2 3 9 8 7 7 7 6 5 4 7 9 10 12
11 11 10 10 10 10 12 14 15 14 13 18 24 25 26 27 20 10 9 7 4 1 7 8 7 6 9 17 7 3 5 3 1 10 11 11 6 8 9 10 8 8 6 3 5 8 13 13 12 13 14 16 18 18 17 17 16 9 7 8 4 6 8 8 7 5 4 5 4 5 1 1 6 9 9 6 6 4 7 6 5 5 8 8 8
9 9 9 10 10 10 11 12 15 15 14 16 23 24 26 27 22 12 13 9 9 7 7 8 8 7 7 9 14 11 4 4 8 12 11 6 8 8 8 8 9 9 7 6 8 9 8 8 7 9 10 11 11 11 13 18 18 14 10 7 2 2 4 5 8 7 5 2 4 4 2 0 5 7 8 7 5 3 4 6 6 6 6 6 4
Wind_Direction
247 257 277 272 242 189 191 176 187 186 188 214 212 200 204 212 213 210 225 238 224 162 221 147 204 110 136 176 162 71 81 91 102 124 129 130 122 131 130 107 131 152 146 144 113 123 124 126 121 109 101 103 88 88 98 97 100 100 96 91 89 88 87 89 87 84 83 83 83 86 87 83 83 85 85 84 83 81 79 77 75 74 74 77 77
285 275 270 284 258 283 218 179 188 179 188 208 214 194 204 204 249 235 232 157 255 160 256 166 182 140 181 166 106 118 89 95 114 117 118 117 128 135 127 111 93 84 122 118 130 128 132 129 119 119 122 122 112 106 103 107 104 102 98 97 99 98 97 97 99 94 85 83 82 78 81 87 85 84 85 84 81 80 79 79 77 76 74 76 78
228 266 283 307 352 314 306 279 198 184 185 209 227 181 205 202 211 240 272 318 296 206 212 155 242 149 203 147 125 103 104 106 101 111 123 132 134 139 137 135 121 111 132 146 146 149 138 135 124 121 124 121 118 118 114 113 114 107 105 105 105 103 103 101 98 98 100 95 91 90 91 92 92 88 86 81 83 82 79 80 80 79 78 77 78
230 240 273 345 232 187 292 310 285 213 184 201 215 202 194 198 211 217 122 251 276 237 222 195 226 203 155 160 113 123 114 98 116 123 131 129 139 135 139 136 136 147 147 179 166 147 142 141 133 132 133 126 121 116 115 117 114 119 114 110 104 105 106 102 98 94 96 98 99 98 94 93 92 93 88 86 86 84 82 82 82 82 81 80 78
224 240 173 208 293 317 21 282 285 282 215 200 213 216 200 170 206 255 177 234 216 214 198 241 235 263 181 101 119 130 117 130 121 128 116 121 129 137 148 149 147 138 144 147 139 147 171 142 144 144 138 137 128 123 121 121 122 120 117 112 112 118 114 110 109 110 102 99 98 95 98 96 96 96 91 87 85 83 82 79 77 79 79 79 78
194 214 196 151 204 210 193 245 262 266 274 274 215 182 199 172 184 230 171 243 211 199 249 219 224 185 158 112 140 110 137 146 147 124 137 130 127 146 150 158 146 160 153 148 151 154 120 141 138 140 136 128 126 128 134 130 131 126 123 119 125 116 116 113 112 109 113 112 107 109 108 109 104 97 96 92 90 89 86 83 82 82 81 79 77
188 191 203 166 166 210 207 226 289 300 294 255 282 223 218 198 175 206 186 228 232 232 221 233 217 201 172 137 144 126 139 128 119 144 157 111 102 126 140 145 157 163 153 139 141 145 149 143 149 143 148 145 138 141 139 140 134 136 130 128 118 123 122 116 113 112 111 111 109 104 105 107 103 101 101 97 92 93 90 90 85 83 80 76 78
206 186 184 154 188 236 247 116 272 301 270 267 229 248 255 249 190 184 198 204 200 227 225 212 230 214 151 128 109 133 138 112 148 138 119 113 124 144 152 137 133 143 146 144 147 144 160 162 138 145 151 149 146 143 143 141 141 141 137 136 137 128 130 129 123 123 122 114 113 114 111 110 113 111 104 99 95 90 88 88 85 80 79 80 75
205 177 154 170 195 249 259 146 191 237 287 292 228 271 252 252 233 196 198 206 206 212 201 207 213 214 140 139 124 142 120 113 165 125 111 105 116 145 134 126 139 147 132 137 147 143 171 148 150 159 155 147 146 146 153 153 150 148 142 140 130 127 125 126 125 123 122 121 120 119 119 118 113 108 104 97 93 91 93 90 86 84 81 78 73
223 181 154 144 188 234 296 245 177 188 243 287 315 301 272 253 237 236 201 199 212 200 191 199 218 197 157 140 135 107 88 140 103 80 130 131 73 154 136 127 142 141 139 142 146 145 147 151 162 159 161 154 145 151 161 158 155 158 149 149 141 137 137 130 128 126 125 125 123 120 120 120 116 111 110 107 100 99 96 93 90 85 82 76 73
200 197 191 166 197 210 244 232 122 173 205 233 344 327 294 265 244 235 244 211 201 210 189 181 187 201 155 146 79 78 95 54 76 104 83 106 155 182 120 136 139 151 145 159 158 152 154 160 154 151 146 160 169 167 163 163 159 163 161 150 149 145 139 133 131 132 128 126 127 125 125 123 117 111 111 110 106 97 92 97 101 96 89 81 76
205 194 178 175 189 201 191 160 178 281 271 217 165 202 257 271 248 226 230 243 222 230 173 154 193 142 98 58 72 84 119 134 135 108 113 137 146 139 138 139 146 155 157 164 167 139 158 164 174 174 152 167 176 173 171 168 167 164 166 163 155 154 150 143 140 136 136 135 135 136 132 124 118 118 122 112 98 95 105 97 91 92 93 93 86
197 204 199 191 193 199 208 194 184 197 196 219 190 225 263 348 345 327 280 229 226 216 178 170 146 112 72 87 83 61 41 6 127 100 124 226 164 152 138 151 157 166 160 157 160 150 160 172 189 162 154 162 169 169 168 153 167 174 169 169 163 156 155 154 150 143 143 144 142 144 136 125 129 135 126 108 108 104 90 89 93 99 102 98 94
195 177 213 228 218 208 210 215 189 202 197 210 206 213 222 218 172 261 286 271 230 210 180 144 278 185 150 149 118 143 114 280 223 209 185 248 137 133 123 152 162 157 143 158 161 166 175 170 180 156 165 165 176 177 172 174 164 175 171 172 168 162 161 158 156 151 150 148 146 138 135 139 141 142 129 116 115 106 98 95 91 91 100 104 97
190 193 216 202 204 200 204 215 190 189 194 198 201 216 207 191 176 196 264 265 249 267 36 296 190 164 159 129 179 168 260 331 284 232 198 222 158 190 137 167 178 149 157 158 166 179 178 173 156 187 167 169 181 175 182 180 174 164 172 178 172 169 166 160 161 159 155 156 152 145 147 148 145 141 131 131 121 112 106 102 92 90 99 103 98
206 213 221 226 217 185 184 208 210 189 200 196 183 197 195 213 183 198 202 295 294 312 161 247 235 177 181 205 158 173 165 221 194 213 192 218 193 203 161 165 176 154 149 167 171 168 169 174 185 184 152 175 197 196 176 189 174 162 166 175 179 176 170 165 164 166 161 161 155 157 157 154 149 135 127 122 113 114 111 108 102 100 104 106 100
214 210 217 230 226 207 198 197 223 206 199 207 213 196 195 200 198 207 195 203 275 237 234 248 252 209 150 152 106 223 220 132 162 187 170 198 226 198 180 150 198 157 157 192 155 162 173 173 185 183 171 178 181 199 168 183 163 173 174 181 179 181 181 170 169 171 172 167 162 162 173 164 144 125 124 120 122 120 116 110 108 110 108 107 104
213 213 218 213 210 210 185 192 205 211 201 210 216 203 194 204 198 221 195 209 256 250 227 235 242 222 251 327 113 153 162 148 139 191 162 211 193 181 42 213 160 141 160 165 145 149 176 177 181 187 178 171 169 172 164 179 160 174 172 184 182 181 185 180 175 175 173 174 171 168 175 175 140 132 128 132 135 125 118 113 112 112 112 110 108
215 211 219 225 224 192 211 200 197 205 207 211 219 211 205 206 187 202 189 185 199 233 219 216 210 230 237 250 193 154 137 137 176 105 167 226 160 201 183 290 209 167 157 181 165 156 160 177 180 194 173 151 161 180 169 187 165 180 179 178 179 184 179 196 185 178 178 176 174 171 176 181 150 143 146 145 134 125 121 120 119 117 117 119 116
214 219 220 219 202 258 220 208 202 201 203 202 210 207 192 187 186 203 176 187 198 204 239 217 186 201 210 221 220 227 179 170 226 243 124 175 203 190 188 200 209 178 170 180 174 174 161 173 182 165 149 154 159 188 172 175 176 180 186 168 176 178 172 175 193 180 181 178 174 174 178 179 156 153 150 139 133 129 127 121 124 125 124 124 121
241 228 229 224 194 201 216 203 205 205 200 202 203 197 195 187 193 185 199 199 201 206 218 220 198 200 173 212 210 211 213 216 191 161 175 223 176 178 187 178 212 186 170 172 192 169 169 170 183 148 154 163 166 170 175 181 179 174 166 161 167 171 166 164 163 152 163 176 178 176 178 175 158 149 136 134 132 134 130 131 132 131 128 126 125
242 256 240 233 223 217 211 213 213 207 194 201 200 197 190 191 201 195 195 212 205 196 201 205 212 214 194 196 196 196 222 212 212 185 182 230 201 179 179 176 190 189 180 178 193 174 184 173 175 176 168 163 165 162 159 178 176 142 154 156 156 158 166 162 151 148 153 180 175 171 171 178 158 143 139 143 146 138 137 139 138 136 134 130 129
198 213 265 259 242 230 216 214 214 209 200 197 198 194 191 190 193 211 196 203 213 190 196 199 210 220 207 198 206 197 197 195 209 203 198 204 177 186 171 183 183 164 190 182 190 181 189 186 189 174 162 145 170 157 155 165 164 137 147 151 151 157 160 155 154 157 165 167 174 176 178 173 153 143 146 148 148 148 145 145 144 140 138 136 133
198 199 218 238 243 230 223 229 224 211 215 217 201 191 187 183 181 202 213 203 204 202 197 198 201 215 221 211 221 223 235 235 63 19 201 231 211 175 178 175 185 168 165 177 202 179 189 185 196 173 158 168 166 157 148 132 128 138 146 151 156 158 156 154 159 164 163 163 165 178 179 163 149 148 148 153 153 155 151 147 144 143 141 142 141
220 229 226 229 241 241 232 229 235 226 223 222 218 203 189 179 187 191 203 200 195 203 216 205 200 209 216 217 214 213 222 107 167 206 257 268 221 156 174 179 176 163 165 167 188 196 188 182 194 174 169 161 142 140 125 124 138 152 146 155 160 162 159 158 161 164 167 169 172 189 168 157 157 157 153 158 159 156 157 141 124 124 140 148 146
307 274 237 233 232 237 239 241 248 245 227 228 223 214 205 195 189 192 200 201 188 203 203 205 211 217 206 212 214 220 221 152 161 172 240 239 207 192 161 166 109 161 155 168 190 181 195 133 242 181 152 162 143 133 136 141 142 151 143 145 157 159 159 160 163 165 168 169 179 189 158 163 156 158 157 160 162 146 119 115 119 117 113 125 146
316 321 311 285 257 254 244 238 236 237 232 229 230 234 206 194 197 196 194 188 183 204 204 204 214 215 206 201 210 217 208 183 171 219 230 224 193 204 164 148 168 191 159 175 190 191 173 179 183 191 172 165 138 150 146 147 151 148 136 138 142 148 147 148 149 148 150 155 159 150 139 135 146 156 153 142 126 126 132 127 127 125 120 118 122
301 306 305 304 300 273 263 257 257 256 253 238 228 231 236 209 194 189 192 186 186 194 198 202 214 215 205 192 201 222 203 190 211 229 229 210 221 187 173 157 159 167 143 175 205 185 195 174 165 177 166 154 154 148 142 145 149 153 149 135 140 146 145 144 143 143 144 141 142 140 138 137 136 134 135 138 140 141 141 141 137 135 134 131 125
263 257 281 286 289 287 278 271 279 306 288 262 243 238 237 232 210 195 200 190 185 202 198 194 202 201 189 192 209 212 224 206 231 244 226 175 217 175 174 183 164 163 168 186 195 175 178 195 161 185 159 161 144 132 144 154 156 161 155 147 149 148 151 147 146 144 142 143 144 147 146 144 143 145 148 150 151 151 150 150 149 147 152 151 146
305 275 259 266 267 287 295 302 312 286 264 262 245 226 231 233 219 205 200 192 189 189 205 194 182 186 197 190 215 240 230 238 252 249 231 176 196 207 194 211 176 173 172 180 180 171 171 175 157 173 165 162 137 146 150 152 166 172 159 156 154 154 158 154 153 150 149 149 148 149 152 152 154 157 157 159 160 157 158 159 160 162 165 168 169
307 300 282 263 276 282 288 300 310 276 275 267 267 256 236 227 237 228 193 187 193 198 202 189 182 188 192 192 191 235 251 244 255 260 238 182 195 214 201 218 214 156 165 169 154 210 162 173 187 178 169 162 152 161 159 158 172 184 161 155 161 156 159 160 159 159 156 154 153 154 156 159 161 165 166 169 167 166 167 170 171 174 180 182 179
315 311 312 310 304 289 253 262 253 216 238 255 264 263 247 236 222 216 208 191 198 204 200 193 187 184 188 195 192 206 204 222 248 241 223 195 207 217 208 193 181 147 149 156 177 182 188 172 177 153 169 165 165 171 145 159 180 193 158 163 153 151 156 158 168 165 163 159 160 160 161 162 167 171 173 174 175 174 174 177 179 185 189 191 179
312 307 308 299 292 303 296 267 261 234 214 238 248 242 244 233 230 224 217 205 203 204 195 189 185 158 180 199 209 215 190 211 227 223 216 208 201 220 219 181 180 165 170 174 150 151 284 205 152 162 161 162 172 168 146 164 175 201 132 138 145 156 158 161 171 175 168 167 167 168 165 166 171 174 176 178 180 182 179 184 187 191 193 195 186
310 307 312 313 309 303 305 326 279 276 271 246 244 254 247 243 235 230 227 202 223 225 198 176 191 212 197 212 220 222 208 233 247 231 204 204 198 200 202 202 195 197 183 177 159 164 186 205 146 144 159 174 163 178 150 161 176 168 131 145 156 158 159 159 167 181 178 173 174 173 170 172 175 180 179 182 183 185 183 188 192 193 197 198 195
326 311 303 307 311 344 335 278 274 272 273 257 241 209 228 235 242 233 215 230 228 213 199 189 178 182 201 212 214 205 197 224 235 238 212 205 203 205 204 190 204 203 171 107 139 181 171 183 173 170 155 193 181 175 150 161 170 158 150 159 167 166 158 165 173 176 183 179 179 176 176 177 181 184 182 184 187 188 189 193 195 197 202 202 204
327 325 319 315 316 313 309 306 259 286 265 252 248 244 233 220 226 227 251 245 234 221 202 194 179 172 184 200 207 193 183 213 234 230 222 205 199 209 206 188 197 192 121 198 170 179 166 165 187 177 159 172 142 177 146 159 170 170 163 168 173 176 165 170 176 174 184 185 181 181 182 183 184 185 184 187 190 192 194 196 199 203 206 209 211
343 334 328 318 285 184 282 295 290 245 269 265 236 241 258 257 225 227 231 223 227 218 208 198 190 177 186 203 204 195 200 200 265 252 221 206 199 203 194 180 60 45 44 23 312 216 164 168 171 164 162 170 168 151 156 160 170 190 177 169 181 188 178 173 174 180 177 183 182 184 187 186 188 189 188 189 192 196 198 199 201 204 207 210 211
347 347 345 342 337 324 259 250 286 301 265 237 270 266 262 281 278 230 196 225 229 221 224 186 198 187 194 206 200 199 192 195 221 250 239 243 25 17 23 88 122 135 135 158 219 260 184 173 157 141 175 169 159 159 196 161 168 179 201 171 178 189 182 170 169 146 122 165 169 193 194 192 195 192 192 195 198 200 201 202 203 206 202 173 167
354 353 351 351 348 348 342 296 287 313 307 301 273 254 231 221 230 224 215 201 212 206 199 200 203 200 197 209 205 199 200 199 213 246 30 114 172 185 174 140 151 139 146 168 150 253 215 186 172 173 176 195 168 175 181 168 170 174 189 172 182 185 168 136 129 143 159 177 195 188 183 188 191 193 201 201 202 202 202 200 196 176 150 170 180
0 359 356 351 351 352 349 352 344 328 321 274 261 288 277 245 237 230 224 212 214 202 205 199 201 202 200 206 216 210 194 182 205 229 191 189 170 157 174 163 166 155 156 177 199 217 211 201 194 178 185 179 194 178 184 176 164 179 187 172 178 176 159 138 148 148 165 165 174 186 213 197 198 200 201 205 206 202 188 164 165 160 176 173 170
3 2 359 357 359 358 355 356 356 350 358 16 10 346 324 298 266 250 260 251 202 206 201 202 202 210 207 195 204 211 204 183 167 193 215 189 179 176 177 173 168 163 165 176 199 213 217 201 191 160 170 176 190 180 166 162 163 173 188 155 163 166 155 140 157 161 161 173 186 183 191 190 192 194 188 196 205 160 146 166 166 182 167 152 156
4 4 3 4 5 4 359 356 353 6 25 12 356 353 354 351 319 299 271 238 218 219 208 204 204 201 207 202 221 220 197 183 180 184 185 188 194 190 176 178 171 177 181 184 195 212 211 179 178 164 172 177 184 181 174 165 153 163 159 153 156 168 144 157 163 169 172 172 178 190 199 181 175 154 160 182 164 155 152 175 165 132 131 126 125
7 5 5 5 7 5 4 359 353 358 34 5 355 352 349 351 354 304 267 273 240 232 218 205 205 201 160 145 238 202 189 198 191 179 185 186 194 194 181 183 181 181 181 186 191 220 188 192 175 168 172 172 180 178 175 172 157 168 166 161 161 159 157 160 180 215 152 160 169 142 142 156 158 121 97 80 98 112 106 121 112 110 110 103 97
8 7 8 8 5 4 2 1 359 353 20 7 356 350 347 345 344 329 297 259 248 247 226 219 210 165 149 230 225 179 220 229 240 188 187 197 196 188 167 164 162 115 99 174 187 178 156 153 146 157 170 166 170 168 179 156 163 150 154 160 163 174 164 172 170 163 215 130 124 121 127 97 93 100 89 80 78 85 103 110 105 111 114 118 120
7 10 9 8 6 4 3 2 360 355 1 4 356 350 344 342 337 334 309 303 282 276 241 221 209 167 150 185 213 210 204 209 182 185 206 225 226 152 125 99 71 98 94 65 47 124 146 153 135 89 55 119 137 140 111 65 154 158 152 159 171 160 162 138 130 123 22 119 111 112 112 115 113 106 100 87 107 115 115 115 124 129 134 137 132
10 11 12 11 8 7 6 4 358 357 357 1 354 350 344 338 335 330 303 298 295 259 255 246 219 206 176 184 180 206 204 217 188 203 196 183 163 144 139 117 105 85 75 78 86 87 119 125 100 131 133 29 327 61 350 125 61 180 152 164 160 147 103 130 138 117 133 72 111 114 101 124 118 113 113 130 123 118 126 146 143 144 140 128 117
10 11 9 7 9 5 5 7 3 358 1 358 355 351 346 339 333 322 284 283 260 282 267 243 258 216 190 208 166 171 173 175 226 290 246 193 173 151 131 131 80 50 36 13 0 356 128 119 167 252 133 138 133 27 322 332 130 284 196 162 138 113 115 103 78 84 85 53 80 95 133 144 135 116 130 138 138 128 137 159 152 138 128 128 128
13 12 16 17 8 6 5 6 4 3 0 360 356 353 350 345 336 319 294 290 300 280 318 36 15 14 2 101 175 166 146 156 181 235 254 215 198 95 106 94 79 68 41 353 311 319 39 64 106 100 101 90 93 109 83 301 299 281 117 92 99 112 114 111 109 92 72 32 41 80 91 129 150 128 129 130 126 126 141 137 161 139 144 141 129
14 14 15 18 14 9 8 7 5 359 358 359 360 359 356 351 344 322 312 296 284 19 88 87 55 25 0 335 32 92 106 170 196 183 200 175 121 128 121 105 100 89 72 47 71 84 83 88 94 100 104 102 97 86 77 75 72 216 145 108 112 128 114 116 114 100 81 45 22 19 77 107 70 121 128 144 148 146 152 158 164 166 131 118 119
14 13 14 14 17 19 14 10 7 360 358 359 1 2 2 358 352 335 322 283 229 77 92 76 75 66 27 10 6 124 142 137 285 152 157 144 157 123 131 121 109 101 99 112 110 79 89 91 95 101 95 90 82 73 66 64 56 54 105 114 133 114 121 129 125 116 105 63 14 349 52 183 133 137 134 142 125 157 157 146 141 104 87 88 104
20 14 11 10 13 15 15 13 8 7 360 359 2 2 5 6 2 339 355 1 40 36 55 60 49 44 35 22 15 21 47 141 119 110 123 129 132 143 136 119 117 121 131 136 106 104 90 72 53 53 45 57 73 77 64 56 55 56 66 86 119 116 149 153 129 127 91 22 342 351 101 228 120 144 136 142 168 149 132 145 145 136 124 123 128